Location: Three Guys Observatory
(38.6418°N, 87.1521°W)
Time: 14:31:27
(UTC-05:00)

ISS - Visible Passes

Search period start: 21 December 2014 00:00
Search period end: 31 December 2014 00:00
Orbit: 404 x 414 km, 51.6° (Epoch: 21 December)

Date Brightness Start Highest point End Pass type
(mag) Time Alt. Az. Time Alt. Az. Time Alt. Az.
21 Dec -0.5 19:30:29 10° NNW 19:30:46 12° NNW 19:30:46 12° NNW visible
22 Dec -1.4 18:40:00 10° NNW 18:42:10 16° NNE 18:42:17 16° NNE visible
23 Dec -1.6 19:25:04 10° NW 19:26:40 25° NNW 19:26:40 25° NNW visible
24 Dec -2.3 18:34:22 10° NNW 18:37:16 28° NNE 18:38:27 22° ENE visible
24 Dec 0.0 20:10:54 10° WNW 20:11:15 12° WNW 20:11:15 12° WNW visible
25 Dec -3.0 19:19:45 10° WNW 19:23:00 61° SW 19:23:17 57° SSW visible
26 Dec -3.4 18:28:46 10° NW 18:32:02 67° NE 18:35:17 10° ESE visible
26 Dec 0.0 20:07:06 10° WSW 20:08:10 11° SW 20:08:31 11° SW visible
27 Dec -0.7 19:14:47 10° W 19:17:22 22° SW 19:19:56 10° S visible
28 Dec -2.0 18:23:19 10° WNW 18:26:26 42° SW 18:29:32 10° SSE visible
30 Dec 0.0 18:18:25 10° W 18:20:30 16° SW 18:22:33 10° S visible
